www.pogodaiklimat.ru
ПОГОДА в Кобе
Время
(UTC), дата
10 8.10
11 8.10
12 8.10
13 8.10
14 8.10
15 8.10
16 8.10
17 8.10
18 8.10
19 8.10
20 8.10
21 8.10
22 8.10
23 8.10
00 9.10
01 9.10
02 9.10
03 9.10
04 9.10
05 9.10
06 9.10
07 9.10
08 9.10
09 9.10
10 9.10
11 9.10
12 9.10
13 9.10
14 9.10
15 9.10
17 9.10
18 9.10
19 9.10
20 9.10
21 9.10
22 9.10
23 9.10
00 10.10
01 10.10
02 10.10
03 10.10
04 10.10
05 10.10
06 10.10
07 10.10
08 10.10
09 10.10
10 10.10
11 10.10
12 10.10
13 10.10
14 10.10
15 10.10
16 10.10
17 10.10
18 10.10
19 10.10
20 10.10
21 10.10
22 10.10
23 10.10
00 11.10
01 11.10
02 11.10
03 11.10
04 11.10
05 11.10
06 11.10
07 11.10
08 11.10
09 11.10
10 11.10
11 11.10
12 11.10
13 11.10
14 11.10
15 11.10
16 11.10
17 11.10
18 11.10
19 11.10
20 11.10
21 11.10
22 11.10
23 11.10
00 12.10
01 12.10
02 12.10
03 12.10
04 12.10
05 12.10
06 12.10
07 12.10
08 12.10
09 12.10
10 12.10
11 12.10
12 12.10
13 12.10
14 12.10
15 12.10
16 12.10
17 12.10
18 12.10
19 12.10
20 12.10
21 12.10
22 12.10
23 12.10
00 13.10
01 13.10
02 13.10
03 13.10
04 13.10
05 13.10
06 13.10
07 13.10
08 13.10
09 13.10
10 13.10
11 13.10
12 13.10
13 13.10
14 13.10
15 13.10
16 13.10
17 13.10
18 13.10
19 13.10
20 13.10
21 13.10
22 13.10
23 13.10
00 14.10
01 14.10
02 14.10
03 14.10
04 14.10
05 14.10
06 14.10
07 14.10
08 14.10
09 14.10
10 14.10
11 14.10
12 14.10
13 14.10
14 14.10
15 14.10
16 14.10
17 14.10
18 14.10
19 14.10
20 14.10
21 14.10
22 14.10
23 14.10
00 15.10
01 15.10
02 15.10
03 15.10
05 15.10
06 15.10
07 15.10
08 15.10
Ветер
(напр.,м/с)
Видим. Явления Облачность Т
(С)
Тd
(С)
f
(%)
Тe
(С)
Тes
(С)
Комфортность P
(гПа)
Po
(гПа)
Тmin
(С)
Tmax
(С)
R
(мм)
R24
(мм)
S
(см)
СЗ 3 н/о н/о +22.3 +15.7 66 +26 +26 жарко 1013.8 1010.3
С 4 н/о н/о +21.8 +15.4 67 +25 +25 комфорт 1014.8 1011.2
С 5 30 км 6/6
[Sc]
+21.2 +14.8 67 +24 +24 комфорт 1015.1 1011.5 +24.7 0.0
С 3 н/о н/о +20.4 +13.4 64 +23 +23 комфорт 1015.4 1011.8
СЗ 3 н/о н/о +20.3 +12.3 60 +23 +23 комфорт 1015.7 1012.1
СЗ 2 н/о н/о +20.0 +11.8 59 +22 +22 комфорт 1015.8 1012.2
СВ 3 н/о н/о +19.8 +11.8 60 +22 +22 комфорт 1016.0 1012.4
СЗ 5 н/о н/о +19.5 +12.0 62 +21 +21 комфорт 1016.4 1012.8
Ю 2 30 км 6/6
[Sc]
+18.8 +11.4 62 +20 +20 тепло 1016.1 1012.5
С 3 н/о н/о +18.4 +10.0 58 +19 +19 тепло 1016.0 1012.4
В 3 н/о н/о +18.2 +8.5 53 +18 +18 тепло 1016.8 1013.2
С 5 н/о н/о +17.9 +7.4 50 +17 +17 тепло 1017.5 1013.9
С 5 н/о н/о +18.7 +4.5 39 +19 +19 тепло 1018.1 1014.5
В 3 н/о н/о +20.1 +6.1 40 +21 +21 комфорт 1018.7 1015.1
СВ 5 30 км 1/1
[Cu hum]
+20.7 +7.4 42 +22 +25 комфорт 1019.0 1015.4 +17.5
С 5 н/о н/о +21.3 +6.4 38 +22 +22 комфорт 1018.7 1015.1
СВ 5 н/о н/о +22.0 +5.4 34 +22 +22 комфорт 1018.2 1014.6
СВ 3 н/о н/о +23.1 +6.8 35 +24 +24 комфорт 1017.3 1013.8
Ю 1 н/о н/о +23.6 +5.5 31 +24 +24 комфорт 1016.5 1013.0
С 2 н/о н/о +24.1 +7.7 35 +24 +24 комфорт 1015.8 1012.3
С 3 40 км ясно +24.0 +7.2 34 +24 +29 комфорт 1015.5 1012.0
С 5 н/о н/о +23.0 +6.7 35 +24 +24 комфорт 1015.7 1012.2
СЗ 6 н/о н/о +21.7 +7.2 39 +23 +23 комфорт 1016.2 1012.6
С 2 н/о н/о +20.6 +5.8 38 +22 +22 комфорт 1016.2 1012.6
С 2 н/о н/о +20.0 +6.4 41 +21 +21 комфорт 1016.7 1013.1
СВ 4 н/о н/о +19.6 +7.7 46 +21 +21 комфорт 1017.4 1013.8
СВ 7 30 км ясно +19.0 +7.5 47 +19 +19 тепло 1017.8 1014.2 +24.4
В 5 н/о н/о +19.0 +7.1 46 +19 +19 тепло 1017.9 1014.3
В 6 н/о н/о +18.6 +7.7 49 +19 +19 тепло 1017.8 1014.2
В 4 н/о н/о +17.9 +7.9 52 +18 +18 тепло 1017.6 1014.0
В 6 н/о н/о +17.8 +8.4 54 +17 +17 тепло 1017.1 1013.5
СВ 7 30 км ясно +17.6 +8.7 56 +17 +17 тепло 1016.5 1012.9
В 2 н/о н/о +17.1 +9.8 62 +17 +17 тепло 1016.2 1012.6
ЮЗ 2 н/о н/о +17.5 +9.9 61 +18 +18 тепло 1016.2 1012.6
ЮЗ 2 н/о н/о +17.8 +10.2 61 +18 +18 тепло 1016.3 1012.7
ЮВ 2 н/о н/о +19.2 +11.0 59 +21 +21 комфорт 1016.6 1013.0
В 4 н/о н/о +21.5 +13.4 60 +24 +24 комфорт 1017.2 1013.6
В 6 30 км ясно +23.1 +14.1 57 +27 +29 душно 1017.0 1013.5 +17.0
В 5 н/о н/о +24.2 +14.0 53 +27 +27 жарко 1016.4 1012.9
В 5 н/о н/о +26.0 +14.8 50 +29 +29 душно 1015.4 1011.9
В 4 н/о н/о +27.4 +15.1 47 +30 +30 жарко 1014.5 1011.0
В 2 н/о н/о +28.2 +16.2 48 +31 +31 душно 1013.3 1009.8
СВ 2 н/о н/о +28.1 +16.1 48 +31 +31 душно 1012.6 1009.1
В 5 20 км 4/4
[Cu Sc]
+27.9 +17.2 52 +32 +33 душно 1012.5 1009.0
СВ 7 н/о н/о +27.5 +17.4 54 +32 +32 очень
душно
1012.7 1009.2
СВ 8 н/о н/о +26.2 +17.3 58 +30 +30 душно 1013.0 1009.5
СВ 7 н/о н/о +25.4 +17.1 60 +29 +29 душно 1013.2 1009.7
СВ 8 н/о н/о +25.4 +17.6 62 +30 +30 душно 1013.5 1010.0
СВ 7 н/о н/о +25.2 +17.9 64 +30 +30 душно 1013.5 1010.0
СВ 8 20 км 9/9
[Cu Sc]
+24.9 +17.6 64 +29 +29 душно 1013.5 1010.0 +29.5
СВ 6 н/о н/о +24.7 +17.4 64 +29 +29 душно 1013.4 1009.9
СВ 7 н/о н/о +25.0 +17.2 62 +29 +29 душно 1013.1 1009.6
СВ 9 н/о н/о +24.4 +17.4 65 +28 +28 душно 1012.8 1009.3
СВ 7 н/о н/о +23.7 +17.7 69 +28 +28 душно 1012.6 1009.1
СВ 8 н/о н/о +23.9 +17.9 69 +28 +28 душно 1012.3 1008.8
СВ 8 25 км 9/3
[Sc Ac trans Ci sp]
+23.5 +17.9 71 +28 +28 душно 1011.5 1008.0
СВ 7 н/о н/о +23.7 +17.9 70 +28 +28 душно 1011.6 1008.1
СВ 7 н/о н/о +23.8 +17.8 69 +28 +28 душно 1011.5 1008.0
СВ 7 н/о н/о +24.0 +18.4 71 +28 +28 душно 1011.0 1007.5
СВ 7 н/о н/о +24.4 +18.6 70 +29 +29 душно 1011.1 1007.6
СВ 6 н/о н/о +24.9 +19.1 70 +30 +30 душно 1011.4 1007.9
СВ 8 25 км 9/1
[Cu Sc Ac trans Ci sp]
+26.1 +19.3 66 +31 +32 очень
душно
1011.2 1007.7 +23.4
СВ 7 н/о н/о +26.9 +19.5 64 +33 +33 очень
душно
1011.1 1007.6
СВ 8 н/о н/о +27.8 +20.1 63 +34 +34 очень
душно
1010.3 1006.8
СВ 7 н/о н/о +28.4 +19.9 60 +35 +35 очень
душно
1009.3 1005.8
СВ 7 н/о н/о +28.6 +20.4 61 +35 +35 очень
душно
1008.3 1004.9
СВ 8 н/о н/о +28.2 +20.0 61 +34 +34 очень
душно
1007.7 1004.3
СВ 8 20 км 9/3
[Cu med, cong Ac As Ci sp]
+28.3 +20.1 61 +35 +35 очень
душно
1006.7 1003.3
СВ 10 н/о н/о +28.3 +20.3 62 +35 +35 очень
душно
1006.2 1002.8
СВ 8 н/о н/о +28.2 +20.2 62 +35 +35 очень
душно
1006.1 1002.7
СВ 8 н/о н/о +27.5 +19.8 63 +33 +33 очень
душно
1006.3 1002.8
СВ 8 н/о н/о +27.5 +19.3 61 +33 +33 очень
душно
1005.6 1002.1
С 9 н/о н/о +27.5 +18.0 56 +32 +32 очень
душно
1005.2 1001.8
С 10 25 км 9/3
[Cu med, cong Ac As]
+27.4 +17.9 56 +32 +32 очень
душно
1004.5 1001.1 +28.9
С 10 н/о н/о +27.6 +17.8 55 +32 +32 очень
душно
1003.8 1000.4
С 8 н/о н/о +27.4 +17.6 55 +32 +32 очень
душно
1002.9 999.5
СВ 12 н/о н/о +27.1 +18.1 58 +32 +32 очень
душно
1003.1 999.7
С 9 н/о н/о +25.6 +18.0 63 +30 +30 душно 1001.7 998.2
СВ 9 н/о н/о +24.9 +19.1 70 +30 +30 душно 1001.8 998.3
СВ 8 10 км слаб. ливневой дождь 10/8
[Cu med, cong Ac As]
+24.4 +19.5 74 +30 +30 очень
душно
1000.9 997.4 1
СВ 8 н/о н/о +23.7 +19.7 78 +29 +29 душно 999.9 996.4
С 6 н/о н/о +23.1 +19.7 81 +30 +30 очень
душно
998.4 994.9
С 9 н/о н/о +23.9 +19.8 78 +29 +29 душно 997.1 993.6
СВ 6 н/о н/о +23.2 +19.8 81 +30 +30 очень
душно
997.2 993.7
С 11 н/о н/о +23.3 +19.9 81 +30 +30 очень
душно
997.1 993.6
С 11 8000 м слаб. ливневой дождь 10/10
[Cu med, cong]
+23.6 +19.8 79 +29 +29 душно 995.6 992.1 +22.9 19
С 10 н/о н/о +23.7 +19.9 79 +29 +29 душно 993.8 990.3
С 17 н/о н/о +23.5 +19.7 79 +29 +29 душно 991.2 987.7
С 20 н/о н/о +23.3 +19.7 80 +30 +30 очень
душно
990.3 986.8
С 18 н/о н/о +22.8 +19.4 81 +29 +29 очень
душно
990.2 986.7
С 11 н/о н/о +22.9 +19.1 79 +29 +29 очень
душно
990.4 986.9
С 12 10 км слаб. ливневой дождь 10/10
[Cu med, cong]
+23.0 +18.6 76 +29 +29 очень
душно
990.6 987.1 28
В 4 н/о н/о +22.5 +18.3 77 +28 +28 душно 991.5 988.0
СЗ 6 н/о н/о +21.7 +18.1 80 +26 +26 душно 991.7 988.2
ЮЗ 5 н/о н/о +22.6 +17.5 73 +28 +28 душно 993.8 990.3
СЗ 6 н/о н/о +21.8 +17.6 77 +26 +26 душно 996.6 993.1
З 6 н/о н/о +20.0 +18.1 89 +23 +23 комфорт 999.2 995.7
ЮЗ 5 5000 м слаб. ливневой дождь 10/10
[Cu med, cong]
+19.4 +17.9 91 +21 +21 комфорт 1000.9 997.4 +23.8 33
З 5 н/о н/о +19.6 +17.6 88 +22 +22 комфорт 1002.7 999.2
З 5 н/о н/о +19.3 +17.5 89 +21 +21 комфорт 1004.1 1000.5
З 5 н/о н/о +19.2 +17.5 90 +21 +21 комфорт 1005.1 1001.5
З 6 н/о н/о +19.8 +17.0 84 +22 +22 комфорт 1006.7 1003.1
З 5 н/о н/о +19.3 +16.7 85 +21 +21 комфорт 1008.4 1004.8
СЗ 6 25 км в посл. час ливневой дождь 9/3
[Cu med, cong Ac trans]
+19.3 +15.2 77 +21 +21 комфорт 1009.5 1005.9 2
СЗ 7 н/о н/о +18.8 +14.7 77 +19 +19 тепло 1010.8 1007.2
СЗ 5 н/о н/о +18.4 +13.9 75 +19 +19 тепло 1011.4 1007.8
ЮЗ 3 н/о н/о +18.6 +13.5 72 +20 +20 тепло 1012.6 1009.0
СВ 2 н/о н/о +19.5 +14.1 71 +22 +22 комфорт 1013.7 1010.1
С 4 н/о н/о +19.6 +13.8 69 +21 +21 комфорт 1015.3 1011.7
СЗ 6 20 км слаб. ливневой дождь 9/9
[Cu med, cong Ac trans]
+19.1 +13.9 72 +20 +20 тепло 1016.4 1012.8 +18.4 2
С 6 н/о н/о +19.0 +13.4 70 +20 +20 тепло 1017.2 1013.6
С 6 н/о н/о +20.0 +13.5 66 +22 +22 комфорт 1017.9 1014.3
С 7 н/о н/о +20.3 +13.3 64 +22 +22 комфорт 1017.5 1013.9
С 3 н/о н/о +19.8 +12.6 63 +22 +22 комфорт 1017.4 1013.8
С 6 н/о н/о +20.3 +12.0 59 +22 +22 комфорт 1017.0 1013.4
С 5 25 км {ливн. осадки} 1/1
[Cu hum]
+20.5 +12.0 58 +22 +25 комфорт 1016.7 1013.1 0.0
С 2 н/о н/о +20.5 +11.2 55 +23 +23 комфорт 1017.2 1013.6
СВ 4 н/о н/о +19.6 +11.6 60 +21 +21 комфорт 1017.9 1014.3
С 3 н/о н/о +18.7 +11.3 62 +20 +20 тепло 1018.7 1015.1
СВ 3 н/о н/о +18.9 +11.0 60 +20 +20 тепло 1019.1 1015.5
СВ 5 н/о н/о +18.5 +11.6 64 +19 +19 тепло 1019.1 1015.5
СВ 5 20 км 1/1
[Sc Ac trans]
+18.6 +11.9 65 +19 +19 тепло 1019.3 1015.7 +21.2 0.0
СВ 2 н/о н/о +18.1 +12.1 68 +19 +19 тепло 1019.2 1015.6
С 1 н/о н/о +18.0 +12.5 70 +19 +19 тепло 1019.3 1015.7
В 2 н/о н/о +17.8 +12.5 71 +19 +19 тепло 1019.3 1015.7
С 2 н/о н/о +18.1 +12.8 71 +19 +19 тепло 1019.3 1015.7
С 1 н/о н/о +18.3 +12.7 70 +20 +20 тепло 1019.4 1015.8
СЗ 2 20 км 10/0
[Ac As]
+18.5 +12.9 70 +20 +20 тепло 1018.8 1015.2
ЮЗ 3 н/о н/о +18.7 +12.9 69 +20 +20 тепло 1019.0 1015.4
Ю 1 н/о н/о +18.6 +13.0 70 +21 +21 комфорт 1018.9 1015.3
З 2 н/о н/о +18.6 +13.7 73 +20 +20 тепло 1019.4 1015.8
В 3 н/о н/о +18.7 +13.8 73 +20 +20 тепло 1019.3 1015.7
В 3 н/о н/о +18.7 +15.2 80 +20 +20 тепло 1019.8 1016.2
В 2 15 км {ливн. осадки} 10/8
[Cu med, cong Ac As]
+18.9 +14.8 77 +21 +21 комфорт 1020.0 1016.4 +17.5 0.0
В 3 н/о н/о +18.9 +16.2 84 +20 +20 тепло 1019.9 1016.3
В 1 н/о н/о +18.1 +17.1 94 +19 +19 тепло 1019.6 1016.0
Ю 1 н/о н/о +18.6 +17.1 91 +21 +21 комфорт 1018.9 1015.3
В 2 н/о н/о +19.1 +17.3 89 +22 +22 комфорт 1018.3 1014.7
В 4 н/о н/о +20.6 +17.4 82 +24 +24 комфорт 1018.1 1014.5
В 5 20 км {ливн. осадки} 9/9
[Cu med, cong]
+21.6 +18.0 80 +26 +26 душно 1018.1 1014.5 0.5
В 5 н/о н/о +21.4 +17.4 78 +25 +25 комфорт 1018.4 1014.8
В 2 н/о н/о +21.7 +16.0 70 +25 +25 комфорт 1018.7 1015.1
Ю 1 н/о н/о +21.7 +15.6 68 +25 +25 комфорт 1019.4 1015.8
СВ 2 н/о н/о +21.4 +15.7 70 +25 +25 комфорт 1020.0 1016.4
В 4 н/о н/о +20.9 +16.1 74 +24 +24 комфорт 1020.4 1016.8
С 4 30 км 3/1
[Cu hum Ac trans]
+20.2 +14.3 69 +23 +23 комфорт 1020.7 1017.1 +22.0 0.5
В 4 н/о н/о +19.9 +13.6 67 +22 +22 комфорт 1021.0 1017.4
С 3 н/о н/о +19.7 +13.2 66 +22 +22 комфорт 1021.1 1017.5
С 4 н/о н/о +19.5 +12.3 63 +21 +21 комфорт 1021.5 1017.9
С 4 н/о н/о +18.9 +12.0 64 +20 +20 тепло 1021.8 1018.2
С 3 н/о н/о +18.9 +11.2 61 +20 +20 тепло 1021.9 1018.3
В 3 30 км 1/1
[Cu hum Ac trans]
+18.5 +11.3 63 +19 +19 тепло 1021.5 1017.9
В 4 н/о н/о +17.6 +11.9 69 +17 +17 тепло 1021.5 1017.9
ЮЗ 1 н/о н/о +17.1 +12.2 73 +18 +18 тепло 1021.8 1018.2
ЮЗ 3 н/о н/о +18.1 +12.1 68 +18 +18 тепло 1022.0 1018.4
З 2 н/о н/о +18.8 +12.6 67 +20 +20 тепло 1022.4 1018.8
С 3 н/о н/о +20.1 +13.1 64 +22 +22 комфорт 1023.3 1019.7
С 5 30 км 9/9
[Cu med, cong]
+19.5 +12.8 65 +21 +21 комфорт 1023.9 1020.3 +16.3
С 3 н/о н/о +19.9 +12.2 61 +22 +22 комфорт 1024.4 1020.8
СЗ 4 н/о н/о +19.5 +11.3 59 +21 +21 комфорт 1024.5 1020.9
С 2 н/о н/о +20.0 +10.2 53 +22 +22 комфорт 1023.8 1020.2
С 6 н/о н/о +20.2 +10.1 52 +21 +21 комфорт 1023.2 1019.6
С 2 30 км 8/8
[Cu med, cong Ci fib]
+19.8 +10.2 54 +22 +23 комфорт 1023.5 1019.9
С 3 н/о н/о +18.9 +10.2 57 +20 +20 тепло 1023.8 1020.2
С 3 н/о н/о +18.4 +10.0 58 +19 +19 тепло 1024.3 1020.7
Местоположение метеостанции Кобе (Япония): широта 34.70 долгота 135.21 высота над уровнем моря 30 м.
В архиве по умолчанию представлена погода в Кобе за последнюю неделю. Архивные данные за месяц целиком и за предыдущие месяцы, начиная с января 2011 года, Вы можете получить, выбрав интересующий диапазон дат из раскрывающегося списка и нажав кнопку "Найти!".
*Определитесь, кто Вы:
Внимание! Время в таблицах - всемирное. Для получения местного времени необходимо прибавить поправку, которая равна 9 ч.
Смотрите также архив погоды в соседних городах и на ближайших метеорологических станциях:
Партнеры нашего сайта:      
Пояснения к столбцам:
  • Ветер - указаны скорость ветра в м/с - средняя за 10 мин, порывы в срок и между сроками (в фигурных скобках) и направление, откуда дует ветер: С - северный,
  • СВ - северо-восточный, В - восточный, ЮВ - юго-восточный, Ю - южный, ЮЗ - юго-западный, З - западный, СЗ - северо-западный.
  • Видимость - горизонтальная дальность видимости в метрах или километрах. При видимости от 1 до 10 км при отсутствии осадков обычно наблюдается дымка, при ухудшении видимости до 1 км и менее - туман. В сухую погоду видимость может ухудшаться дымом, пылью или мглою.
  • Явления - указаны атмосферные явления, наблюдавшиеся в срок или в последний час перед сроком; фигурными скобками обозначены явления, наблюдавшиеся между сроками (за 1-3 часа до срока); квадратными скобками обозначены град или гололедные отложения с указанием их диаметра в мм.
  • Облачность - указаны через наклонную черту общая и нижняя облачность в баллах и высота нижней границы облаков в метрах; квадратными скобками обозначены формы облаков: Ci - перистые, Cs - перисто-слоистые, Cc - перисто-кучевые, Ac - высококучевые, As - высокослоистые, Sc - слоисто-кучевые, Ns - слоисто-дождевые, Cu - кучевые, Cb - кучево-дождевые. Подробнее классификацию облаков см. в Атласе облаков (PDF).
  • T - Температура воздуха - температура, измеренная на высоте 2 м над землей.
  • Td - Температура точки росы - температура, при понижении до которой содержащийся в воздухе водяной пар достигнет насыщения.
  • f - Относительная влажность воздуха - влажноcть воздуха, измеренная на высоте 2 м над землей.
  • Te - Эффективная температура - температура, которую ощущает одетый по сезону человек в тени. Характеристика душности погоды. При расчете учитывается влияние влажности воздуха и скорости ветра на теплоощущения человека.
  • Tes - Эффективная температура на солнце - температура, которую ощущает человек, с поправкой на солнечный нагрев. Характеристика знойности погоды. Зависит от высоты солнца над горизонтом, облачности и скорости ветра. Ночью, в пасмурную погоду, а также при ветре 12 м/с и более поправка равна нулю.
  • P - Атмосферное давление - приведенное к уровню моря атмосферное давление.
  • Po - Атмосферное давление - измеренное на уровне метеостанции атмосферное давление.
  • Tmin - Минимальная температура - минимум температуры воздуха на высоте 2 м над землей.
  • Tmax - Максимальная температура - максимум температуры воздуха на высоте 2 м над землей.
  • R - Количество осадков - Количество выпавших осадков за период времени, мм. При наведении курсора мыши на число - период времени, за который выпало указанное количество осадков.
  • R24 - Количество осадков - Количество выпавших осадков за 24 часа, мм.
  • S - Снежный покров - Высота снежного покрова, см. При наведении курсора мыши на число - состояние снежного покрова и степень покрытия местности в баллах.